AUA77G LOWW-LIPZ

Flight info

Callsign AUA77G
Flight time 0h 47m
Altitude 34000
Route RUPET DCT GRZ DCT RADLY DCT OGODI DCT RIFEN/N0446F330 DCT BADOP DCT ROSKA/N0370F190 P125 TULIK Z71 BASOG
Aircraft A321/M-SDE3FGHIRWY/LB1

Departure

Time 2026-04-30 11:56
Airport Vienna International Airport (LOWW)

Arrival

Time 2026-04-30 12:44
Airport Venice Marco Polo Airport (LIPZ)
Time Latitude Longitude Altitude Speed Heading
2026-04-30 11:30 48.11811 16.57044 617 ft 0 kts 205°
2026-04-30 11:48 48.11815 16.57046 609 ft 3 kts 204°
2026-04-30 11:48 48.11839 16.57060 615 ft 4 kts 193°
2026-04-30 11:48 48.11865 16.57064 619 ft 4 kts 169°
2026-04-30 11:48 48.11885 16.57049 619 ft 2 kts 117°
2026-04-30 11:49 48.11886 16.57047 618 ft 0 kts 116°
2026-04-30 11:50 48.11886 16.57048 618 ft 1 kts 116°
2026-04-30 11:51 48.11876 16.57077 619 ft 4 kts 116°
2026-04-30 11:51 48.11858 16.57135 620 ft 8 kts 109°
2026-04-30 11:51 48.11848 16.57237 609 ft 12 kts 114°
2026-04-30 11:51 48.11811 16.57367 617 ft 15 kts 98°
2026-04-30 11:52 48.11767 16.57488 620 ft 15 kts 153°
2026-04-30 11:52 48.11661 16.57533 614 ft 17 kts 164°
2026-04-30 11:52 48.11537 16.57585 612 ft 20 kts 164°
2026-04-30 11:52 48.11388 16.57649 622 ft 23 kts 164°
2026-04-30 11:53 48.11223 16.57718 613 ft 26 kts 164°
2026-04-30 11:53 48.11034 16.57799 618 ft 30 kts 164°
2026-04-30 11:53 48.10821 16.57890 613 ft 33 kts 164°
2026-04-30 11:53 48.10584 16.57988 618 ft 37 kts 164°
2026-04-30 11:54 48.10328 16.58097 618 ft 40 kts 164°
2026-04-30 11:54 48.10051 16.58216 615 ft 42 kts 164°
2026-04-30 11:54 48.09800 16.58321 624 ft 30 kts 164°
2026-04-30 11:54 48.09658 16.58397 625 ft 20 kts 140°
2026-04-30 11:55 48.09681 16.58555 617 ft 19 kts 21°
2026-04-30 11:55 48.09814 16.58588 616 ft 20 kts
2026-04-30 11:55 48.09957 16.58621 619 ft 19 kts
2026-04-30 11:55 48.10060 16.58628 612 ft 14 kts 342°
2026-04-30 11:56 48.10079 16.58620 616 ft 8 kts 342°
2026-04-30 11:56 48.10395 16.58485 620 ft 93 kts 345°
2026-04-30 11:56 48.11271 16.58118 628 ft 166 kts 345°
2026-04-30 11:56 48.12408 16.57615 1534 ft 170 kts 346°
2026-04-30 11:57 48.13546 16.57118 2577 ft 179 kts 345°
2026-04-30 11:57 48.14665 16.56140 3003 ft 203 kts 312°
2026-04-30 11:57 48.15121 16.54013 3151 ft 236 kts 270°
2026-04-30 11:57 48.14472 16.51637 3458 ft 263 kts 229°
2026-04-30 11:58 48.12951 16.49995 4103 ft 275 kts 207°
2026-04-30 11:58 48.11209 16.48863 4962 ft 277 kts 201°
2026-04-30 11:58 48.09392 16.47807 5818 ft 281 kts 201°
2026-04-30 11:58 48.07590 16.46586 6591 ft 286 kts 211°
2026-04-30 11:59 48.05940 16.44868 7351 ft 290 kts 217°
2026-04-30 11:59 48.04355 16.42967 8100 ft 294 kts 220°
2026-04-30 11:59 48.02789 16.40957 8860 ft 297 kts 221°
2026-04-30 11:59 48.01249 16.38921 9603 ft 300 kts 222°
2026-04-30 12:00 47.99673 16.36824 10353 ft 304 kts 222°
2026-04-30 12:00 47.98055 16.34660 10705 ft 322 kts 224°
2026-04-30 12:00 47.96540 16.32058 10844 ft 343 kts 236°
2026-04-30 12:00 47.95336 16.28959 11174 ft 354 kts 247°
2026-04-30 12:01 47.94453 16.25503 11777 ft 357 kts 252°
2026-04-30 12:01 47.93600 16.21996 12440 ft 360 kts 252°
2026-04-30 12:01 47.92734 16.18479 13126 ft 363 kts 252°
2026-04-30 12:01 47.91862 16.14963 13801 ft 365 kts 252°
2026-04-30 12:02 47.90974 16.11386 14451 ft 368 kts 252°
2026-04-30 12:02 47.90084 16.07802 15014 ft 371 kts 252°
2026-04-30 12:02 47.89179 16.04153 15573 ft 375 kts 252°
2026-04-30 12:02 47.88033 16.00673 16095 ft 382 kts 239°
2026-04-30 12:03 47.86370 15.97547 16608 ft 389 kts 226°
2026-04-30 12:03 47.81787 15.93147 17592 ft 399 kts 200°
2026-04-30 12:03 47.79160 15.91670 18061 ft 403 kts 200°
2026-04-30 12:04 47.76530 15.90184 18575 ft 407 kts 201°
2026-04-30 12:04 47.73878 15.88677 19036 ft 410 kts 200°
2026-04-30 12:04 47.71222 15.87166 19469 ft 413 kts 200°
2026-04-30 12:04 47.68532 15.85641 19877 ft 416 kts 200°
2026-04-30 12:05 47.65805 15.84099 20321 ft 418 kts 200°
2026-04-30 12:05 47.63112 15.82580 20718 ft 420 kts 200°
2026-04-30 12:05 47.60366 15.81033 21135 ft 423 kts 200°
2026-04-30 12:05 47.57601 15.79477 21540 ft 425 kts 200°
2026-04-30 12:06 47.54818 15.77906 21941 ft 427 kts 200°
2026-04-30 12:06 47.52080 15.76363 22365 ft 428 kts 200°
2026-04-30 12:06 47.49279 15.74790 22792 ft 430 kts 200°
2026-04-30 12:06 47.46466 15.73212 23193 ft 432 kts 200°
2026-04-30 12:07 47.43647 15.71631 23599 ft 434 kts 200°
2026-04-30 12:07 47.40805 15.70039 23992 ft 437 kts 200°
2026-04-30 12:07 47.37997 15.68475 24313 ft 439 kts 200°
2026-04-30 12:07 47.35121 15.66874 24658 ft 441 kts 200°
2026-04-30 12:08 47.32236 15.65264 25063 ft 442 kts 200°
2026-04-30 12:08 47.29359 15.63653 25409 ft 444 kts 200°
2026-04-30 12:08 47.26464 15.62042 25717 ft 446 kts 200°
2026-04-30 12:08 47.23549 15.60427 26049 ft 448 kts 200°
2026-04-30 12:09 47.20661 15.58827 26374 ft 450 kts 200°
2026-04-30 12:09 47.17720 15.57194 26695 ft 452 kts 200°
2026-04-30 12:09 47.14764 15.55552 27023 ft 454 kts 200°
2026-04-30 12:09 47.11793 15.53904 27360 ft 456 kts 200°
2026-04-30 12:10 47.08814 15.52256 27692 ft 457 kts 200°
2026-04-30 12:10 47.05873 15.50632 27995 ft 460 kts 200°
2026-04-30 12:10 47.02850 15.48967 28307 ft 462 kts 200°
2026-04-30 12:10 46.99824 15.47304 28614 ft 464 kts 200°
2026-04-30 12:11 46.96832 15.45658 28913 ft 466 kts 201°
2026-04-30 12:11 46.93883 15.43669 29224 ft 467 kts 208°
2026-04-30 12:11 46.91025 15.41431 29540 ft 468 kts 208°
2026-04-30 12:11 46.88133 15.39164 29831 ft 470 kts 208°
2026-04-30 12:12 46.85240 15.36898 30101 ft 471 kts 208°
2026-04-30 12:12 46.82378 15.34660 30353 ft 473 kts 208°
2026-04-30 12:12 46.79460 15.32381 30558 ft 475 kts 208°
2026-04-30 12:12 46.76542 15.30110 30765 ft 476 kts 208°
2026-04-30 12:13 46.73610 15.27834 30965 ft 477 kts 209°
2026-04-30 12:13 46.70675 15.25559 31215 ft 477 kts 209°
2026-04-30 12:13 46.67806 15.23230 31469 ft 476 kts 214°
2026-04-30 12:13 46.65178 15.20408 31719 ft 474 kts 223°
2026-04-30 12:14 46.62851 15.17056 31957 ft 472 kts 231°
2026-04-30 12:14 46.60855 15.13272 32178 ft 470 kts 237°
2026-04-30 12:14 46.58935 15.09409 32361 ft 471 kts 236°
2026-04-30 12:14 46.56999 15.05545 32629 ft 470 kts 236°
2026-04-30 12:15 46.55097 15.01767 32912 ft 469 kts 236°
2026-04-30 12:15 46.53167 14.97951 33168 ft 469 kts 236°
2026-04-30 12:15 46.51225 14.94112 33425 ft 469 kts 236°
2026-04-30 12:15 46.49301 14.90305 33680 ft 469 kts 236°
2026-04-30 12:16 46.47367 14.86478 33922 ft 468 kts 237°
2026-04-30 12:16 46.45429 14.82649 34161 ft 469 kts 237°
2026-04-30 12:16 46.43524 14.78888 34316 ft 469 kts 237°
2026-04-30 12:17 46.37806 14.67655 34347 ft 458 kts 236°
2026-04-30 12:17 46.34027 14.60238 34352 ft 457 kts 237°
2026-04-30 12:18 46.30265 14.52866 34340 ft 457 kts 237°
2026-04-30 12:18 46.27110 14.46706 34354 ft 458 kts 236°
2026-04-30 12:19 46.23325 14.39346 34359 ft 457 kts 236°
2026-04-30 12:19 46.19530 14.31979 34364 ft 456 kts 236°
2026-04-30 12:20 46.15750 14.24661 34359 ft 455 kts 236°
2026-04-30 12:20 46.11964 14.17354 34347 ft 455 kts 236°
2026-04-30 12:21 46.08153 14.10021 34317 ft 454 kts 237°
2026-04-30 12:21 46.04399 14.02802 34320 ft 453 kts 237°
2026-04-30 12:22 46.00607 13.95560 34301 ft 452 kts 236°
2026-04-30 12:22 45.96930 13.88278 33862 ft 451 kts 243°
2026-04-30 12:23 45.95356 13.84377 33176 ft 449 kts 243°
2026-04-30 12:23 45.93805 13.80507 32615 ft 445 kts 243°
2026-04-30 12:23 45.92267 13.76670 32071 ft 440 kts 243°
2026-04-30 12:23 45.90741 13.72872 31550 ft 436 kts 243°
2026-04-30 12:24 45.89225 13.69114 31028 ft 432 kts 243°
2026-04-30 12:24 45.87728 13.65423 30535 ft 428 kts 243°
2026-04-30 12:24 45.86242 13.61770 29964 ft 424 kts 242°
2026-04-30 12:24 45.84576 13.58280 29375 ft 423 kts 233°
2026-04-30 12:25 45.82595 13.55154 28770 ft 421 kts 229°
2026-04-30 12:25 45.80620 13.52163 28202 ft 417 kts 229°
2026-04-30 12:25 45.78627 13.49141 27617 ft 414 kts 229°
2026-04-30 12:25 45.76654 13.46150 27010 ft 411 kts 229°
2026-04-30 12:26 45.74706 13.43200 26476 ft 406 kts 229°
2026-04-30 12:26 45.72788 13.40297 25916 ft 402 kts 229°
2026-04-30 12:26 45.70868 13.37391 25352 ft 399 kts 229°
2026-04-30 12:26 45.68973 13.34530 24784 ft 396 kts 229°
2026-04-30 12:27 45.67081 13.31681 24246 ft 393 kts 229°
2026-04-30 12:27 45.65199 13.28852 23664 ft 390 kts 229°
2026-04-30 12:27 45.63330 13.26037 23049 ft 387 kts 229°
2026-04-30 12:27 45.61505 13.23289 22473 ft 385 kts 229°
2026-04-30 12:28 45.59673 13.20537 21904 ft 382 kts 229°
2026-04-30 12:28 45.57846 13.17798 21352 ft 379 kts 230°
2026-04-30 12:28 45.56026 13.15074 20816 ft 376 kts 229°
2026-04-30 12:28 45.54232 13.12387 20291 ft 373 kts 229°
2026-04-30 12:29 45.52462 13.09739 19767 ft 371 kts 229°
2026-04-30 12:29 45.50676 13.07072 19276 ft 369 kts 229°
2026-04-30 12:29 45.48907 13.04434 18790 ft 366 kts 229°
2026-04-30 12:29 45.47157 13.01805 18263 ft 364 kts 229°
2026-04-30 12:30 45.45465 12.99198 17724 ft 362 kts 231°
2026-04-30 12:30 45.43774 12.96555 17214 ft 359 kts 231°
2026-04-30 12:30 45.42107 12.93941 16762 ft 355 kts 230°
2026-04-30 12:30 45.40454 12.91353 16280 ft 352 kts 230°
2026-04-30 12:31 45.38810 12.88787 15776 ft 350 kts 231°
2026-04-30 12:31 45.37170 12.86234 15280 ft 348 kts 231°
2026-04-30 12:31 45.35540 12.83701 14801 ft 346 kts 230°
2026-04-30 12:31 45.33926 12.81192 14348 ft 343 kts 229°
2026-04-30 12:32 45.32321 12.78703 13828 ft 342 kts 231°
2026-04-30 12:32 45.30706 12.76198 13256 ft 342 kts 230°
2026-04-30 12:32 45.29119 12.73741 12759 ft 340 kts 229°
2026-04-30 12:32 45.27519 12.71275 12287 ft 337 kts 230°
2026-04-30 12:33 45.26065 12.68711 11757 ft 334 kts 241°
2026-04-30 12:33 45.25234 12.65672 11234 ft 328 kts 263°
2026-04-30 12:33 45.25182 12.62482 10775 ft 320 kts 284°
2026-04-30 12:33 45.25667 12.59485 10649 ft 305 kts 287°
2026-04-30 12:34 45.26134 12.56597 10357 ft 299 kts 285°
2026-04-30 12:34 45.26583 12.53731 9964 ft 296 kts 285°
2026-04-30 12:34 45.27029 12.50864 9512 ft 295 kts 285°
2026-04-30 12:34 45.27473 12.48022 9067 ft 294 kts 287°
2026-04-30 12:35 45.27919 12.45185 8614 ft 293 kts 287°
2026-04-30 12:35 45.28360 12.42402 8197 ft 290 kts 284°
2026-04-30 12:35 45.28804 12.39604 7739 ft 290 kts 287°
2026-04-30 12:35 45.29252 12.36802 7327 ft 288 kts 285°
2026-04-30 12:36 45.29686 12.34070 6935 ft 286 kts 287°
2026-04-30 12:36 45.30121 12.31314 6509 ft 286 kts 286°
2026-04-30 12:36 45.30548 12.28581 6133 ft 282 kts 287°
2026-04-30 12:36 45.30958 12.25950 5943 ft 261 kts 287°
2026-04-30 12:37 45.31340 12.23494 5509 ft 250 kts 286°
2026-04-30 12:37 45.31714 12.21122 5025 ft 242 kts 286°
2026-04-30 12:37 45.32214 12.18910 4462 ft 233 kts 306°
2026-04-30 12:37 45.33322 12.17313 3920 ft 224 kts 336°
2026-04-30 12:38 45.34780 12.16790 3701 ft 216 kts
2026-04-30 12:38 45.36244 12.17230 3476 ft 215 kts 27°
2026-04-30 12:38 45.37430 12.18406 3230 ft 205 kts 44°
2026-04-30 12:38 45.38483 12.19758 2952 ft 201 kts 45°
2026-04-30 12:39 45.39517 12.21088 2680 ft 198 kts 45°
2026-04-30 12:39 45.40515 12.22366 2415 ft 194 kts 45°
2026-04-30 12:39 45.41514 12.23645 2162 ft 186 kts 44°
2026-04-30 12:39 45.42431 12.24815 1930 ft 168 kts 45°
2026-04-30 12:40 45.43257 12.25870 1700 ft 150 kts 46°
2026-04-30 12:40 45.43998 12.26819 1496 ft 140 kts 46°
2026-04-30 12:40 45.44396 12.27331 1394 ft 139 kts 46°
2026-04-30 12:42 45.44664 12.27655 1366 ft 135 kts 43°
2026-04-30 12:42 45.45360 12.28549 1169 ft 137 kts 45°
2026-04-30 12:42 45.46059 12.29455 970 ft 135 kts 44°
2026-04-30 12:42 45.46759 12.30360 771 ft 136 kts 49°
2026-04-30 12:43 45.47460 12.31261 587 ft 136 kts 47°
2026-04-30 12:43 45.48156 12.32158 397 ft 134 kts 48°
2026-04-30 12:43 45.48834 12.33056 224 ft 137 kts 45°
2026-04-30 12:43 45.49552 12.33953 50 ft 134 kts 49°
2026-04-30 12:44 45.50213 12.34807 16 ft 115 kts 43°
2026-04-30 12:44 45.50622 12.35324 14 ft 38 kts 38°
2026-04-30 12:44 45.50812 12.35429 16 ft 29 kts 13°
2026-04-30 12:44 45.50951 12.35450 17 ft 18 kts 341°
2026-04-30 12:45 45.50982 12.35348 18 ft 10 kts 259°
2026-04-30 12:45 45.50961 12.35236 17 ft 15 kts 250°
2026-04-30 12:45 45.50879 12.35107 16 ft 21 kts 222°
2026-04-30 12:45 45.50757 12.34951 16 ft 27 kts 221°
2026-04-30 12:46 45.50629 12.34786 16 ft 23 kts 223°
2026-04-30 12:46 45.50605 12.34636 16 ft 18 kts 267°
2026-04-30 12:46 45.50599 12.34440 16 ft 20 kts 267°
2026-04-30 12:46 45.50619 12.34314 16 ft 14 kts 266°
2026-04-30 12:47 45.50617 12.34232 16 ft 7 kts 267°
2026-04-30 12:47 45.50616 12.34212 16 ft 0 kts 267°